N447BF MDJB-MDJB

Flight info

Callsign N447BF
Flight time 0h 7m
Altitude 4000
Route VFR
Aircraft B407/L-SFG/C

Departure

Time 2026-05-06 03:14
Airport La Isabela International Airport (MDJB)

Arrival

Time 2026-05-06 03:21
Airport La Isabela International Airport (MDJB)
Time Latitude Longitude Altitude Speed Heading
2026-05-06 02:57 18.40351 -68.98836 13 ft 0 kts 101°
2026-05-06 02:58 18.40352 -68.98835 15 ft 1 kts 103°
2026-05-06 02:58 18.40324 -68.98865 24 ft 31 kts 189°
2026-05-06 02:59 18.40019 -68.98995 164 ft 81 kts 250°
2026-05-06 02:59 18.39919 -68.99697 494 ft 104 kts 267°
2026-05-06 02:59 18.39907 -69.00070 747 ft 106 kts 272°
2026-05-06 02:59 18.39900 -69.00561 991 ft 120 kts 269°
2026-05-06 03:00 18.39914 -69.01509 1226 ft 135 kts 276°
2026-05-06 03:00 18.39994 -69.02526 1487 ft 143 kts 279°
2026-05-06 03:00 18.40118 -69.03596 1741 ft 153 kts 278°
2026-05-06 03:00 18.40248 -69.04754 1824 ft 161 kts 275°
2026-05-06 03:01 18.40356 -69.05929 1826 ft 162 kts 275°
2026-05-06 03:01 18.40463 -69.07112 1817 ft 162 kts 275°
2026-05-06 03:01 18.40570 -69.08293 1810 ft 162 kts 275°
2026-05-06 03:01 18.40682 -69.09479 1807 ft 163 kts 275°
2026-05-06 03:02 18.40797 -69.10667 1806 ft 163 kts 275°
2026-05-06 03:02 18.40917 -69.11851 1806 ft 163 kts 276°
2026-05-06 03:02 18.41041 -69.13042 1806 ft 164 kts 276°
2026-05-06 03:02 18.41167 -69.14210 1749 ft 156 kts 276°
2026-05-06 03:03 18.41311 -69.15325 1757 ft 151 kts 278°
2026-05-06 03:03 18.41480 -69.16392 1784 ft 144 kts 281°
2026-05-06 03:03 18.41665 -69.17409 1813 ft 140 kts 281°
2026-05-06 03:03 18.41855 -69.18417 1817 ft 140 kts 281°
2026-05-06 03:04 18.42040 -69.19433 1803 ft 143 kts 280°
2026-05-06 03:04 18.42194 -69.20467 1788 ft 146 kts 276°
2026-05-06 03:04 18.42305 -69.21540 1781 ft 148 kts 274°
2026-05-06 03:04 18.42396 -69.22633 1783 ft 150 kts 273°
2026-05-06 03:05 18.42480 -69.23726 1790 ft 150 kts 273°
2026-05-06 03:05 18.42563 -69.24823 1794 ft 150 kts 273°
2026-05-06 03:05 18.42647 -69.25918 1796 ft 150 kts 273°
2026-05-06 03:05 18.42732 -69.27014 1796 ft 150 kts 273°
2026-05-06 03:06 18.42816 -69.28113 1796 ft 150 kts 273°
2026-05-06 03:06 18.42901 -69.29200 1795 ft 150 kts 273°
2026-05-06 03:06 18.42987 -69.30298 1795 ft 151 kts 273°
2026-05-06 03:06 18.43074 -69.31399 1795 ft 151 kts 273°
2026-05-06 03:07 18.43161 -69.32498 1795 ft 151 kts 273°
2026-05-06 03:07 18.43248 -69.33597 1795 ft 151 kts 273°
2026-05-06 03:07 18.43336 -69.34700 1795 ft 151 kts 273°
2026-05-06 03:07 18.43424 -69.35802 1795 ft 151 kts 273°
2026-05-06 03:08 18.43511 -69.36906 1796 ft 151 kts 273°
2026-05-06 03:08 18.43582 -69.38008 1795 ft 150 kts 270°
2026-05-06 03:08 18.43650 -69.39085 1790 ft 149 kts 271°
2026-05-06 03:08 18.43726 -69.40187 1786 ft 149 kts 271°
2026-05-06 03:09 18.43802 -69.41261 1783 ft 149 kts 271°
2026-05-06 03:09 18.43881 -69.42346 1782 ft 149 kts 271°
2026-05-06 03:09 18.43962 -69.43435 1782 ft 149 kts 271°
2026-05-06 03:09 18.44044 -69.44520 1782 ft 149 kts 271°
2026-05-06 03:10 18.44126 -69.45599 1781 ft 149 kts 271°
2026-05-06 03:10 18.44210 -69.46691 1781 ft 149 kts 271°
2026-05-06 03:10 18.44294 -69.47761 1781 ft 148 kts 271°
2026-05-06 03:10 18.44378 -69.48845 1781 ft 149 kts 271°
2026-05-06 03:11 18.44464 -69.49930 1781 ft 149 kts 271°
2026-05-06 03:11 18.44549 -69.51016 1781 ft 149 kts 271°
2026-05-06 03:11 18.44635 -69.52104 1781 ft 149 kts 271°
2026-05-06 03:11 18.44721 -69.53190 1781 ft 149 kts 271°
2026-05-06 03:12 18.44806 -69.54263 1781 ft 149 kts 271°
2026-05-06 03:12 18.44893 -69.55362 1781 ft 149 kts 271°
2026-05-06 03:12 18.44980 -69.56451 1781 ft 149 kts 271°
2026-05-06 03:12 18.45067 -69.57539 1781 ft 149 kts 271°
2026-05-06 03:13 18.45152 -69.58610 1781 ft 149 kts 271°
2026-05-06 03:13 18.45239 -69.59701 1781 ft 149 kts 271°
2026-05-06 03:13 18.45327 -69.60792 1781 ft 149 kts 271°
2026-05-06 03:13 18.45415 -69.61879 1781 ft 149 kts 271°
2026-05-06 03:14 18.45504 -69.62964 1780 ft 149 kts 271°
2026-05-06 03:14 18.45594 -69.64053 1780 ft 149 kts 271°
2026-05-06 03:14 18.45682 -69.65107 1779 ft 149 kts 271°
2026-05-06 03:14 18.45775 -69.66210 1779 ft 149 kts 271°
2026-05-06 03:15 18.45840 -69.67294 1778 ft 147 kts 268°
2026-05-06 03:15 18.45837 -69.68364 1780 ft 146 kts 265°
2026-05-06 03:15 18.45817 -69.69435 1780 ft 147 kts 265°
2026-05-06 03:15 18.45791 -69.70512 1780 ft 147 kts 265°
2026-05-06 03:16 18.45778 -69.71593 1779 ft 147 kts 269°
2026-05-06 03:16 18.45872 -69.72670 1780 ft 148 kts 274°
2026-05-06 03:16 18.46004 -69.73752 1779 ft 149 kts 274°
2026-05-06 03:16 18.46094 -69.74835 1779 ft 148 kts 270°
2026-05-06 03:17 18.46157 -69.75923 1780 ft 148 kts 270°
2026-05-06 03:17 18.46215 -69.77008 1780 ft 148 kts 270°
2026-05-06 03:17 18.46272 -69.78094 1780 ft 148 kts 270°
2026-05-06 03:17 18.46328 -69.79179 1780 ft 148 kts 270°
2026-05-06 03:18 18.46385 -69.80252 1779 ft 148 kts 270°
2026-05-06 03:18 18.46442 -69.81341 1779 ft 148 kts 270°
2026-05-06 03:18 18.46499 -69.82425 1780 ft 149 kts 270°
2026-05-06 03:18 18.46557 -69.83514 1780 ft 149 kts 270°
2026-05-06 03:19 18.46588 -69.84579 1798 ft 136 kts 262°
2026-05-06 03:19 18.46530 -69.85601 1683 ft 135 kts 258°
2026-05-06 03:19 18.46430 -69.86527 1587 ft 125 kts 259°
2026-05-06 03:19 18.46290 -69.87453 1436 ft 131 kts 253°
2026-05-06 03:20 18.45788 -69.89338 1020 ft 134 kts 246°
2026-05-06 03:20 18.45466 -69.90266 790 ft 135 kts 246°
2026-05-06 03:20 18.45149 -69.91187 548 ft 129 kts 246°
2026-05-06 03:21 18.44862 -69.92012 461 ft 99 kts 264°
2026-05-06 03:21 18.45094 -69.92220 288 ft 42 kts 41°
2026-05-06 03:21 18.45310 -69.92103 124 ft 21 kts 44°
2026-05-06 03:21 18.45370 -69.92067 54 ft 2 kts 73°
2026-05-06 03:22 18.45373 -69.92065 50 ft 0 kts 89°
2026-05-06 03:25 18.45380 -69.92061 57 ft 4 kts 140°
2026-05-06 03:25 18.45220 -69.92277 197 ft 77 kts 232°
2026-05-06 03:25 18.44728 -69.92831 406 ft 128 kts 220°
2026-05-06 03:26 18.44151 -69.93559 677 ft 128 kts 240°
2026-05-06 03:26 18.44128 -69.94479 868 ft 136 kts 290°
2026-05-06 03:26 18.44840 -69.95172 881 ft 144 kts 330°
2026-05-06 03:26 18.45390 -69.95355 930 ft 144 kts 345°
2026-05-06 03:27 18.46038 -69.95520 1064 ft 149 kts 345°
2026-05-06 03:27 18.47040 -69.95760 1105 ft 142 kts 345°
2026-05-06 03:27 18.48019 -69.95964 1245 ft 145 kts 346°
2026-05-06 03:27 18.49030 -69.96179 1323 ft 152 kts 348°
2026-05-06 03:28 18.50087 -69.96402 1346 ft 155 kts 346°
2026-05-06 03:28 18.51117 -69.96660 1383 ft 152 kts 345°
2026-05-06 03:28 18.52143 -69.96957 1370 ft 153 kts 343°
2026-05-06 03:28 18.53182 -69.97250 1252 ft 154 kts 343°
2026-05-06 03:29 18.54197 -69.97529 1157 ft 153 kts 343°
2026-05-06 03:29 18.54730 -69.97705 1100 ft 155 kts 341°
2026-05-06 03:29 18.55728 -69.98031 760 ft 144 kts 343°
2026-05-06 03:29 18.56669 -69.98297 390 ft 140 kts 345°
2026-05-06 03:30 18.57412 -69.98371 330 ft 73 kts 13°
2026-05-06 03:30 18.57758 -69.98341 183 ft 27 kts
2026-05-06 03:30 18.57853 -69.98307 95 ft 11 kts 85°
2026-05-06 03:30 18.57852 -69.98259 92 ft 5 kts 114°
2026-05-06 03:31 18.57852 -69.98250 83 ft 0 kts 102°